When you browse on this site, cookies collect data to enhance your experience and personalize the content and advertising you see.
Visit our Privacy Policy to learn more. By continuing to use the site, you agree to this use of cookies and data.
  • In Deutschland
  • Länderverzeichnis
  • Für 7 Tage
  • Wassertemperatur
  • Satellitenkarten
  • Wetterkarte
  • Widgets
  • user-avatar
    Anmelden

    Stündliche Wetter Iraklio

    Heute, 20 Januar, Sonntag

    Zeit Temperatur Niederschläge Wind Luftdruck Luftfeuchtigkeit
    00:00 +10°C° 0 mm 4 m/S 757 mmHg 75%
    01:00 +10°C° 0 mm 4 m/S 757 mmHg 75%
    02:00 +10°C° 0 mm 5 m/S 757 mmHg 73%
    03:00 +11°C° 0 mm 4 m/S 757 mmHg 73%
    04:00 +11°C° 0 mm 4 m/S 757 mmHg 74%
    05:00 +11°C° 0 mm 3 m/S 757 mmHg 74%
    06:00 +11°C° 0 mm 4 m/S 756 mmHg 75%
    07:00 +11°C° 0 mm 4 m/S 756 mmHg 75%
    08:00 +11°C° 0 mm 4 m/S 756 mmHg 76%
    09:00 +12°C° 0.2 mm 4 m/S 756 mmHg 77%
    10:00 +12°C° 0.2 mm 4 m/S 756 mmHg 79%
    11:00 +13°C° 0.2 mm 4 m/S 757 mmHg 81%
    12:00 +12°C° 0.7 mm 4 m/S 756 mmHg 82%
    13:00 +12°C° 0.7 mm 3 m/S 756 mmHg 83%
    14:00 +13°C° 0 mm 3 m/S 756 mmHg 81%
    15:00 +12°C° 0.4 mm 3 m/S 756 mmHg 84%
    16:00 +12°C° 0.4 mm 3 m/S 755 mmHg 86%
    17:00 +11°C° 0.4 mm 3 m/S 755 mmHg 89%
    18:00 +11°C° 0.6 mm 3 m/S 755 mmHg 90%
    19:00 +12°C° 0.6 mm 2 m/S 755 mmHg 90%
    20:00 +12°C° 0.6 mm 2 m/S 754 mmHg 91%
    21:00 +12°C° 1.4 mm 2 m/S 754 mmHg 92%
    22:00 +12°C° 1.4 mm 2 m/S 754 mmHg 93%
    23:00 +13°C° 1.4 mm 2 m/S 754 mmHg 94%

    Morgen, 21 Januar, Montag

    Zeit Temperatur Niederschläge Wind Luftdruck Luftfeuchtigkeit
    00:00 +12°C° 0.6 mm 3 m/S 754 mmHg 92%
    01:00 +12°C° 0.6 mm 3 m/S 754 mmHg 90%
    02:00 +12°C° 0.6 mm 3 m/S 754 mmHg 89%
    03:00 +12°C° 0.2 mm 3 m/S 753 mmHg 89%
    04:00 +12°C° 0.2 mm 3 m/S 753 mmHg 90%
    05:00 +13°C° 0.2 mm 2 m/S 753 mmHg 91%
    06:00 +12°C° 0 mm 2 m/S 753 mmHg 92%
    07:00 +12°C° 0 mm 2 m/S 754 mmHg 92%
    08:00 +12°C° 0 mm 2 m/S 754 mmHg 92%
    09:00 +13°C° 0 mm 2 m/S 754 mmHg 88%
    10:00 +13°C° 0 mm 3 m/S 755 mmHg 84%
    11:00 +14°C° 0 mm 3 m/S 755 mmHg 80%
    12:00 +14°C° 0 mm 3 m/S 755 mmHg 78%
    13:00 +14°C° 0 mm 3 m/S 755 mmHg 77%
    14:00 +14°C° 0 mm 3 m/S 755 mmHg 75%
    15:00 +14°C° 0 mm 3 m/S 755 mmHg 78%
    16:00 +15°C° 0 mm 2 m/S 755 mmHg 80%
    17:00 +14°C° 0 mm 2 m/S 755 mmHg 82%
    18:00 +13°C° 0 mm 2 m/S 755 mmHg 85%
    19:00 +13°C° 0 mm 1 m/S 756 mmHg 88%
    20:00 +12°C° 0 mm 1 m/S 756 mmHg 91%
    21:00 +12°C° 0 mm 1 m/S 756 mmHg 91%
    22:00 +12°C° 0 mm 1 m/S 756 mmHg 91%
    23:00 +12°C° 0 mm 1 m/S 756 mmHg 91%

    übermorgen, 22 Januar, Dienstag

    Zeit Temperatur Niederschläge Wind Luftdruck Luftfeuchtigkeit
    00:00 +11°C° 0 mm 1 m/S 756 mmHg 90%
    01:00 +11°C° 0 mm 1 m/S 756 mmHg 90%
    02:00 +11°C° 0 mm 1 m/S 756 mmHg 90%
    03:00 +11°C° 0 mm 1 m/S 756 mmHg 90%
    04:00 +9°C° 0 mm 2 m/S 756 mmHg 90%
    05:00 +9°C° 0 mm 2 m/S 756 mmHg 90%
    06:00 +9°C° 0 mm 2 m/S 756 mmHg 89%
    07:00 +9°C° 0 mm 2 m/S 756 mmHg 88%
    08:00 +10°C° 0 mm 2 m/S 756 mmHg 88%
    09:00 +12°C° 0 mm 2 m/S 756 mmHg 80%
    10:00 +14°C° 0 mm 2 m/S 757 mmHg 73%
    11:00 +16°C° 0 mm 2 m/S 757 mmHg 65%
    12:00 +16°C° 0 mm 2 m/S 756 mmHg 65%
    13:00 +17°C° 0 mm 2 m/S 756 mmHg 65%
    14:00 +17°C° 0 mm 3 m/S 755 mmHg 64%
    15:00 +16°C° 0 mm 3 m/S 755 mmHg 69%
    16:00 +16°C° 0 mm 3 m/S 755 mmHg 74%
    17:00 +14°C° 0 mm 4 m/S 755 mmHg 79%
    18:00 +13°C° 0 mm 4 m/S 755 mmHg 81%
    19:00 +13°C° 0 mm 5 m/S 755 mmHg 83%
    20:00 +12°C° 0 mm 5 m/S 755 mmHg 85%
    21:00 +12°C° 0 mm 5 m/S 755 mmHg 85%
    22:00 +12°C° 0 mm 5 m/S 754 mmHg 85%
    23:00 +11°C° 0 mm 6 m/S 754 mmHg 85%

    23 Januar, Mittwoch

    Zeit Temperatur Niederschläge Wind Luftdruck Luftfeuchtigkeit
    00:00 +11°C° 0 mm 6 m/S 754 mmHg 84%
    01:00 +11°C° 0 mm 6 m/S 754 mmHg 83%
    02:00 +11°C° 0 mm 6 m/S 754 mmHg 82%
    03:00 +11°C° 0 mm 6 m/S 753 mmHg 82%
    04:00 +11°C° 0 mm 6 m/S 753 mmHg 82%
    05:00 +12°C° 0 mm 5 m/S 752 mmHg 82%
    06:00 +12°C° 0 mm 5 m/S 752 mmHg 83%
    07:00 +12°C° 0 mm 5 m/S 752 mmHg 84%
    08:00 +12°C° 0 mm 5 m/S 752 mmHg 84%
    09:00 +13°C° 0 mm 5 m/S 752 mmHg 79%
    10:00 +15°C° 0 mm 6 m/S 752 mmHg 75%
    11:00 +16°C° 0 mm 6 m/S 752 mmHg 70%
    12:00 +16°C° 0 mm 6 m/S 751 mmHg 71%
    13:00 +16°C° 0 mm 6 m/S 751 mmHg 72%
    14:00 +16°C° 0 mm 6 m/S 750 mmHg 73%
    15:00 +15°C° 0 mm 6 m/S 749 mmHg 76%
    16:00 +15°C° 0 mm 6 m/S 749 mmHg 79%
    17:00 +14°C° 0 mm 6 m/S 748 mmHg 83%
    18:00 +14°C° 0.1 mm 6 m/S 748 mmHg 84%
    19:00 +14°C° 0.1 mm 6 m/S 748 mmHg 86%
    20:00 +14°C° 0.1 mm 6 m/S 748 mmHg 88%
    21:00 +13°C° 0.2 mm 6 m/S 748 mmHg 88%
    22:00 +13°C° 0.2 mm 6 m/S 747 mmHg 89%
    23:00 +13°C° 0.2 mm 6 m/S 747 mmHg 89%

    24 Januar, Donnerstag

    Zeit Temperatur Niederschläge Wind Luftdruck Luftfeuchtigkeit
    00:00 +13°C° 0.1 mm 6 m/S 746 mmHg 89%
    01:00 +14°C° 0.1 mm 6 m/S 745 mmHg 90%
    02:00 +14°C° 0.1 mm 6 m/S 744 mmHg 90%
    03:00 +14°C° 0.2 mm 6 m/S 743 mmHg 91%
    04:00 +14°C° 0.2 mm 6 m/S 742 mmHg 91%
    05:00 +14°C° 0.2 mm 6 m/S 741 mmHg 92%
    06:00 +14°C° 0.4 mm 5 m/S 741 mmHg 91%
    07:00 +14°C° 0.4 mm 5 m/S 741 mmHg 90%
    08:00 +14°C° 0.4 mm 4 m/S 741 mmHg 89%
    09:00 +14°C° 0.4 mm 5 m/S 741 mmHg 83%
    10:00 +15°C° 0.4 mm 6 m/S 741 mmHg 77%
    11:00 +15°C° 0.4 mm 6 m/S 741 mmHg 71%
    12:00 +15°C° 0.1 mm 7 m/S 742 mmHg 70%
    13:00 +15°C° 0.1 mm 7 m/S 742 mmHg 69%
    14:00 +15°C° 0.1 mm 7 m/S 742 mmHg 68%
    15:00 +15°C° 0 mm 7 m/S 743 mmHg 70%
    16:00 +14°C° 0 mm 6 m/S 743 mmHg 72%
    17:00 +13°C° 0 mm 5 m/S 744 mmHg 74%
    18:00 +13°C° 0 mm 5 m/S 745 mmHg 76%
    19:00 +11°C° 0 mm 6 m/S 745 mmHg 79%
    20:00 +11°C° 0 mm 6 m/S 746 mmHg 82%
    21:00 +11°C° 0 mm 6 m/S 747 mmHg 81%
    22:00 +11°C° 0 mm 6 m/S 747 mmHg 81%
    23:00 +11°C° 0 mm 6 m/S 747 mmHg 80%

    25 Januar, Freitag

    Zeit Temperatur Niederschläge Wind Luftdruck Luftfeuchtigkeit
    00:00 +11°C° 0 mm 6 m/S 747 mmHg 80%
    01:00 +11°C° 0 mm 6 m/S 747 mmHg 80%
    02:00 +11°C° 0 mm 6 m/S 747 mmHg 80%
    03:00 +11°C° 0 mm 6 m/S 746 mmHg 77%
    04:00 +11°C° 0 mm 6 m/S 746 mmHg 73%
    05:00 +11°C° 0 mm 6 m/S 746 mmHg 70%
    06:00 +11°C° 0.1 mm 7 m/S 746 mmHg 71%
    07:00 +12°C° 0.1 mm 8 m/S 746 mmHg 71%
    08:00 +12°C° 0.1 mm 8 m/S 746 mmHg 72%
    09:00 +11°C° 0.8 mm 8 m/S 746 mmHg 77%
    10:00 +11°C° 0.8 mm 8 m/S 746 mmHg 82%
    11:00 +11°C° 0.8 mm 8 m/S 746 mmHg 87%
    12:00 +11°C° 0.3 mm 8 m/S 746 mmHg 80%
    13:00 +12°C° 0.3 mm 9 m/S 746 mmHg 73%
    14:00 +13°C° 0.3 mm 10 m/S 746 mmHg 66%
    15:00 +12°C° 0 mm 9 m/S 745 mmHg 65%
    16:00 +12°C° 0 mm 9 m/S 745 mmHg 65%
    17:00 +11°C° 0 mm 8 m/S 745 mmHg 64%
    18:00 +11°C° 0 mm 9 m/S 745 mmHg 65%
    19:00 +10°C° 0 mm 9 m/S 745 mmHg 65%
    20:00 +10°C° 0 mm 9 m/S 745 mmHg 66%
    21:00 +10°C° 0.3 mm 9 m/S 745 mmHg 73%
    22:00 +9°C° 0.3 mm 10 m/S 744 mmHg 79%
    23:00 +9°C° 0.3 mm 10 m/S 744 mmHg 86%
    Mehr zeigen